Westminster, MD

7:56 PM EST on February 13, 2016 (GMT -0500)
Carroll County Regional-Poage

Weather History for KDMW - June, 2013

Change the Weather History Date:

Thursday, June 20, 2013

  Actual Average (KTHV) Record (KTHV)
Temperature  
Mean Temperature 71 °F -  
Max Temperature 82 °F 85 °F 93 °F (1978)
Min Temperature 60 °F 62 °F 50 °F (2000)
Cooling Degree Days 6    
Growing Degree Days 21 (Base 50)    
Moisture  
Dew Point 57 °F    
Average Humidity 66    
Maximum Humidity 94    
Minimum Humidity 23    
Precipitation  
Precipitation 0.00 in - - ()
Sea Level Pressure  
Sea Level Pressure 30.26 in    
Wind  
Wind Speed 3 mph (South)    
Max Wind Speed 13 mph    
Max Gust Speed 16 mph    
Visibility 9 miles    
Events      
Averages and records for this station are not official NWS values.
T = Trace of Precipitation, MM = Missing Value Source: NWS Daily Summary

Daily Weather History Graph

Daily Weather History Graph

Search for Another Location

Airport or City:

Trip Planner

Search our weather history database for the weather conditions in past years. The results will help you decide how hot, cold, wet, or windy it might be!

Date:

Astronomy

Jun. 20, 2013 Rise Set
Actual Time 5:40 AM EDT 8:38 PM EDT
Civil Twilight 5:07 AM EDT 9:11 PM EDT
Nautical Twilight 4:26 AM EDT 9:52 PM EDT
Astronomical Twilight 3:38 AM EDT 10:40 PM EDT
Moon 5:39 PM EDT (6/20) 3:04 AM EDT (6/20)
Length of Visible Light 16h 03m
Length of Day
14h 58m
Waxing Gibbous, 89% of the Moon is Illuminated
Jun 20
Waxing Gibbous
Jun 23
Full
Jun 30
Last Quarter
Jul 8
New
Jul 15
First Quarter

Hourly Weather History & Observations

Time (EDT) Temp. Heat Index Dew Point Humidity Pressure Visibility Wind Dir Wind Speed Gust Speed Precip Events Conditions
12:10 AM 64.4 °F - 57.2 °F 77% 30.19 in 10.0 mi Calm Calm - N/A   Clear
12:30 AM 64.4 °F - 57.2 °F 77% - 10.0 mi Calm Calm - N/A   Scattered Clouds
12:50 AM 64.4 °F - 57.2 °F 77% 30.19 in 10.0 mi Calm Calm - N/A   Clear
1:10 AM 64.4 °F - 57.2 °F 77% 30.20 in 10.0 mi Calm Calm - N/A   Clear
1:30 AM 62.6 °F - 57.2 °F 82% 30.20 in 10.0 mi Calm Calm - N/A   Clear
1:50 AM 62.6 °F - 57.2 °F 82% 30.20 in 10.0 mi Calm Calm - N/A   Clear
2:10 AM 62.6 °F - 57.2 °F 82% 30.21 in 10.0 mi Calm Calm - N/A   Clear
2:30 AM 62.6 °F - 57.2 °F 82% 30.20 in 10.0 mi Calm Calm - N/A   Clear
2:50 AM 60.8 °F - 57.2 °F 88% 30.20 in 10.0 mi Calm Calm - N/A   Clear
3:10 AM 60.8 °F - 55.4 °F 82% 30.20 in 10.0 mi Calm Calm - N/A   Clear
3:30 AM 60.8 °F - 55.4 °F 82% 30.21 in 10.0 mi ESE 3.5 mph - N/A   Clear
3:50 AM 60.8 °F - 55.4 °F 82% 30.21 in 10.0 mi Calm Calm - N/A   Clear
4:10 AM 60.8 °F - 55.4 °F 82% 30.21 in 10.0 mi Calm Calm - N/A   Clear
4:30 AM 60.8 °F - 55.4 °F 82% 30.21 in 10.0 mi Calm Calm - N/A   Clear
4:50 AM 60.8 °F - 55.4 °F 82% 30.22 in 10.0 mi Calm Calm - N/A   Clear
5:10 AM 60.8 °F - 55.4 °F 82% 30.22 in 10.0 mi Calm Calm - N/A   Clear
5:30 AM 60.8 °F - 55.4 °F 82% 30.23 in 10.0 mi Calm Calm - N/A   Clear
5:50 AM 60.8 °F - 57.2 °F 88% 30.24 in 10.0 mi Calm Calm - N/A   Scattered Clouds
6:10 AM 60.8 °F - 57.2 °F 88% 30.24 in 10.0 mi Calm Calm - N/A   Scattered Clouds
6:30 AM 60.8 °F - 57.2 °F 88% 30.25 in 10.0 mi Calm Calm - N/A   Scattered Clouds
6:50 AM 62.6 °F - 59.0 °F 88% 30.25 in 4.0 mi Calm Calm - N/A   Mostly Cloudy
7:10 AM 62.6 °F - 60.8 °F 94% 30.25 in 1.0 mi Calm Calm - N/A   Overcast
7:30 AM 62.6 °F - 60.8 °F 94% 30.26 in 0.8 mi Calm Calm - N/A   Overcast
7:50 AM 62.6 °F - 60.8 °F 94% 30.26 in 0.8 mi South 4.6 mph - N/A   Overcast
8:10 AM 64.4 °F - 62.6 °F 94% 30.27 in 1.8 mi Calm Calm - N/A   Overcast
8:30 AM 64.4 °F - 62.6 °F 94% 30.27 in 4.0 mi Calm Calm - N/A   Overcast
8:50 AM 64.4 °F - 62.6 °F 94% 30.28 in 5.0 mi SSW 5.8 mph - N/A   Overcast
9:10 AM 66.2 °F - 62.6 °F 88% 30.29 in 10.0 mi SSW 5.8 mph - N/A   Overcast
9:30 AM 68.0 °F - 62.6 °F 83% 30.29 in 10.0 mi South 5.8 mph - N/A   Overcast
9:50 AM 69.8 °F - 62.6 °F 78% - 7.0 mi SSW 4.6 mph - N/A   Overcast
10:10 AM 69.8 °F - 64.4 °F 83% 30.29 in 7.0 mi South 3.5 mph - N/A   Mostly Cloudy
10:30 AM 71.6 °F - 33.8 °F 25% 30.29 in 7.0 mi South 4.6 mph - N/A   Mostly Cloudy
10:50 AM 73.4 °F - 33.8 °F 23% 30.29 in 10.0 mi Calm Calm - N/A   Scattered Clouds
11:10 AM 73.4 °F - 62.6 °F 69% 30.30 in 10.0 mi Calm Calm - N/A   Scattered Clouds
11:30 AM 73.4 °F - 62.6 °F 69% 30.30 in 10.0 mi South 6.9 mph - N/A   Scattered Clouds
11:50 AM 75.2 °F - 60.8 °F 61% 30.30 in 10.0 mi South 8.1 mph - N/A   Scattered Clouds
12:10 PM 78.8 °F - 62.6 °F 57% 30.29 in 10.0 mi South 4.6 mph - N/A   Clear
12:30 PM 77.0 °F - 60.8 °F 57% 30.29 in 10.0 mi SSW 9.2 mph - N/A   Mostly Cloudy
12:50 PM 78.8 °F - 60.8 °F 54% 30.28 in 10.0 mi South 8.1 mph - N/A   Scattered Clouds
1:10 PM 80.6 °F 81.8 °F 62.6 °F 54% 30.28 in 10.0 mi South 10.4 mph - N/A   Mostly Cloudy
1:30 PM 78.8 °F - 60.8 °F 54% 30.27 in 10.0 mi SSE 10.4 mph - N/A   Mostly Cloudy
1:50 PM 77.0 °F - 57.2 °F 50% 30.27 in 10.0 mi Calm Calm - N/A   Unknown
2:10 PM 78.8 °F - 57.2 °F 47% 30.27 in 10.0 mi South 5.8 mph 16.1 mph N/A   Mostly Cloudy
2:30 PM 82.4 °F 84.6 °F 66.2 °F 58% 30.27 in 10.0 mi SSE 6.9 mph - N/A   Scattered Clouds
2:50 PM 80.6 °F 80.8 °F 57.2 °F 45% 30.27 in 10.0 mi South 9.2 mph - N/A   Mostly Cloudy
3:10 PM 78.8 °F - 57.2 °F 47% 30.27 in 10.0 mi South 9.2 mph - N/A   Overcast
3:30 PM 82.4 °F 82.0 °F 57.2 °F 42% 30.26 in 10.0 mi South 8.1 mph - N/A   Scattered Clouds
3:50 PM 80.6 °F 80.8 °F 57.2 °F 45% 30.26 in 10.0 mi SSE 9.2 mph - N/A   Scattered Clouds
4:10 PM 82.4 °F 82.0 °F 57.2 °F 42% 30.25 in 10.0 mi South 9.2 mph - N/A   Scattered Clouds
4:30 PM 82.4 °F 82.0 °F 57.2 °F 42% 30.25 in 10.0 mi South 8.1 mph - N/A   Clear
4:50 PM 80.6 °F 80.8 °F 57.2 °F 45% 30.25 in - South 10.4 mph - N/A   Mostly Cloudy
5:10 PM 78.8 °F - 55.4 °F 44% 30.26 in - SSE 12.7 mph - N/A   Mostly Cloudy
5:30 PM 80.6 °F 80.5 °F 55.4 °F 42% 30.26 in 10.0 mi SSE 9.2 mph - N/A   Scattered Clouds
5:50 PM 80.6 °F 80.5 °F 55.4 °F 42% 30.25 in 10.0 mi South 10.4 mph - N/A   Scattered Clouds
6:10 PM 80.6 °F 80.5 °F 55.4 °F 42% 30.25 in 10.0 mi South 10.4 mph - N/A   Clear
6:30 PM 78.8 °F - 55.4 °F 44% 30.25 in 10.0 mi South 10.4 mph 16.1 mph N/A   Clear
6:50 PM 78.8 °F - 55.4 °F 44% 30.26 in 10.0 mi SSE 9.2 mph - N/A   Clear
7:10 PM 78.8 °F - 55.4 °F 44% 30.26 in 10.0 mi SSE 9.2 mph - N/A   Clear
7:30 PM 78.8 °F - 57.2 °F 47% 30.27 in 10.0 mi South 6.9 mph - N/A   Clear
7:50 PM 75.2 °F - 57.2 °F 53% 30.27 in 10.0 mi SSE 4.6 mph - N/A   Clear
8:10 PM 75.2 °F - 53.6 °F 47% 30.27 in 10.0 mi SSE 3.5 mph - N/A   Clear
8:30 PM 73.4 °F - 55.4 °F 53% 30.27 in 10.0 mi Calm Calm - N/A   Clear
8:50 PM 73.4 °F - 55.4 °F 53% 30.26 in 10.0 mi SSE 4.6 mph - N/A   Clear
9:10 PM 71.6 °F - 55.4 °F 57% 30.26 in 10.0 mi SSE 4.6 mph - N/A   Clear
9:30 PM 71.6 °F - 55.4 °F 57% 30.27 in 10.0 mi SSE 3.5 mph - N/A   Clear
9:50 PM 71.6 °F - 55.4 °F 57% 30.28 in 10.0 mi SSE 4.6 mph - N/A   Clear
10:10 PM 69.8 °F - 55.4 °F 60% 30.28 in 10.0 mi South 6.9 mph - N/A   Clear
10:30 PM 69.8 °F - 55.4 °F 60% 30.28 in 10.0 mi SSE 4.6 mph - N/A   Clear
10:50 PM 69.8 °F - 57.2 °F 64% 30.28 in 10.0 mi Calm Calm - N/A   Clear
11:10 PM 68.0 °F - 57.2 °F 68% 30.28 in 10.0 mi Calm Calm - N/A   Clear
11:30 PM 66.2 °F - 57.2 °F 73% 30.28 in 10.0 mi Calm Calm - N/A   Clear
11:50 PM 66.2 °F - 55.4 °F 68% 30.29 in 10.0 mi Calm Calm - N/A   Unknown